When you browse on this site, cookies collect data to enhance your experience and personalize the content and advertising you see.
Visit our Privacy Policy to learn more. By continuing to use the site, you agree to this use of cookies and data.
  • en Suisse
  • Liste des pays
  • À 7 jours
  • Température de l'eau
  • Carte météo
  • Widgets météo
  • user-avatar
    Se connecter

    Météo par heure à Inverness

    Ce jour, 27 Mai, Mercredi

    Heure Température Précipitation Vent Pression Humidité
    00:00 +8°C° 0 mm 2 m/s 773 mmHg 86%
    01:00 +8°C° 0 mm 2 m/s 773 mmHg 85%
    02:00 +8°C° 0 mm 2 m/s 773 mmHg 85%
    03:00 +8°C° 0 mm 2 m/s 772 mmHg 84%
    04:00 +9°C° 0 mm 2 m/s 773 mmHg 82%
    05:00 +9°C° 0 mm 2 m/s 773 mmHg 80%
    06:00 +10°C° 0 mm 2 m/s 773 mmHg 79%
    07:00 +12°C° 0 mm 2 m/s 773 mmHg 73%
    08:00 +13°C° 0 mm 2 m/s 773 mmHg 67%
    09:00 +14°C° 0 mm 2 m/s 773 mmHg 60%
    10:00 +15°C° 0 mm 2 m/s 773 mmHg 56%
    11:00 +16°C° 0 mm 2 m/s 773 mmHg 52%
    12:00 +18°C° 0 mm 1 m/s 773 mmHg 48%
    13:00 +18°C° 0 mm 2 m/s 773 mmHg 47%
    14:00 +18°C° 0 mm 2 m/s 773 mmHg 46%
    15:00 +19°C° 0 mm 2 m/s 773 mmHg 45%
    16:00 +18°C° 0 mm 2 m/s 773 mmHg 50%
    17:00 +17°C° 0 mm 2 m/s 773 mmHg 54%
    18:00 +16°C° 0 mm 2 m/s 772 mmHg 59%
    19:00 +15°C° 0 mm 2 m/s 772 mmHg 67%
    20:00 +14°C° 0 mm 2 m/s 772 mmHg 74%
    21:00 +13°C° 0 mm 1 m/s 772 mmHg 82%
    22:00 +13°C° 0.1 mm 1 m/s 772 mmHg 83%
    23:00 +13°C° 0.1 mm 1 m/s 772 mmHg 85%

    Demain, 28 Mai, Jeudi

    Heure Température Précipitation Vent Pression Humidité
    00:00 +13°C° 0.1 mm 2 m/s 771 mmHg 86%
    01:00 +13°C° 0.1 mm 2 m/s 771 mmHg 87%
    02:00 +13°C° 0.1 mm 2 m/s 770 mmHg 88%
    03:00 +12°C° 0.1 mm 3 m/s 770 mmHg 89%
    04:00 +12°C° 0 mm 3 m/s 770 mmHg 88%
    05:00 +12°C° 0 mm 3 m/s 770 mmHg 88%
    06:00 +13°C° 0 mm 3 m/s 770 mmHg 87%
    07:00 +14°C° 0 mm 3 m/s 770 mmHg 84%
    08:00 +16°C° 0 mm 3 m/s 769 mmHg 81%
    09:00 +18°C° 0 mm 3 m/s 769 mmHg 77%
    10:00 +19°C° 0 mm 3 m/s 769 mmHg 73%
    11:00 +20°C° 0 mm 3 m/s 769 mmHg 70%
    12:00 +21°C° 0 mm 3 m/s 769 mmHg 66%
    13:00 +21°C° 0 mm 2 m/s 769 mmHg 66%
    14:00 +21°C° 0 mm 2 m/s 769 mmHg 66%
    15:00 +21°C° 0 mm 2 m/s 769 mmHg 66%
    16:00 +22°C° 0 mm 1 m/s 769 mmHg 69%
    17:00 +22°C° 0 mm 1 m/s 768 mmHg 71%
    18:00 +21°C° 0 mm 1 m/s 768 mmHg 73%
    19:00 +20°C° 0 mm 1 m/s 768 mmHg 79%
    20:00 +18°C° 0 mm 1 m/s 768 mmHg 86%
    21:00 +16°C° 0 mm 1 m/s 768 mmHg 92%
    22:00 +15°C° 0 mm 1 m/s 768 mmHg 93%
    23:00 +14°C° 0 mm 1 m/s 768 mmHg 95%

    Après-demain, 29 Mai, Vendredi

    Heure Température Précipitation Vent Pression Humidité
    00:00 +14°C° 0 mm 1 m/s 767 mmHg 96%
    01:00 +14°C° 0 mm 1 m/s 767 mmHg 96%
    02:00 +13°C° 0 mm 1 m/s 767 mmHg 96%
    03:00 +13°C° 0 mm 1 m/s 767 mmHg 96%
    04:00 +14°C° 0 mm 1 m/s 767 mmHg 94%
    05:00 +15°C° 0 mm 1 m/s 766 mmHg 92%
    06:00 +16°C° 0 mm 1 m/s 766 mmHg 90%
    07:00 +19°C° 0 mm 1 m/s 766 mmHg 81%
    08:00 +21°C° 0 mm 1 m/s 766 mmHg 73%
    09:00 +22°C° 0 mm 1 m/s 766 mmHg 64%
    10:00 +23°C° 0 mm 2 m/s 765 mmHg 61%
    11:00 +24°C° 0 mm 2 m/s 765 mmHg 58%
    12:00 +25°C° 0 mm 3 m/s 765 mmHg 55%
    13:00 +25°C° 0 mm 3 m/s 765 mmHg 55%
    14:00 +25°C° 0 mm 3 m/s 765 mmHg 56%
    15:00 +25°C° 0 mm 3 m/s 764 mmHg 57%
    16:00 +25°C° 0 mm 3 m/s 764 mmHg 61%
    17:00 +24°C° 0 mm 2 m/s 764 mmHg 65%
    18:00 +24°C° 0 mm 2 m/s 764 mmHg 69%
    19:00 +21°C° 0.1 mm 2 m/s 764 mmHg 75%
    20:00 +21°C° 0.1 mm 1 m/s 764 mmHg 82%
    21:00 +19°C° 0.1 mm 1 m/s 764 mmHg 88%
    22:00 +18°C° 0 mm 1 m/s 764 mmHg 90%
    23:00 +18°C° 0 mm 1 m/s 764 mmHg 92%

    30 Mai, Samedi

    Heure Température Précipitation Vent Pression Humidité
    00:00 +16°C° 0 mm 1 m/s 764 mmHg 93%
    01:00 +16°C° 0 mm 1 m/s 764 mmHg 94%
    02:00 +15°C° 0 mm 1 m/s 764 mmHg 94%
    03:00 +15°C° 0 mm 1 m/s 764 mmHg 94%
    04:00 +16°C° 0 mm 1 m/s 764 mmHg 92%
    05:00 +18°C° 0 mm 1 m/s 764 mmHg 89%
    06:00 +19°C° 0 mm 1 m/s 764 mmHg 86%
    07:00 +20°C° 0 mm 1 m/s 764 mmHg 78%
    08:00 +22°C° 0 mm 1 m/s 764 mmHg 70%
    09:00 +23°C° 0 mm 2 m/s 764 mmHg 62%
    10:00 +24°C° 0 mm 2 m/s 764 mmHg 58%
    11:00 +25°C° 0 mm 3 m/s 764 mmHg 55%
    12:00 +25°C° 0 mm 3 m/s 764 mmHg 52%
    13:00 +25°C° 0 mm 3 m/s 764 mmHg 52%
    14:00 +25°C° 0 mm 3 m/s 764 mmHg 51%
    15:00 +25°C° 0 mm 3 m/s 763 mmHg 51%
    16:00 +25°C° 0 mm 3 m/s 763 mmHg 54%
    17:00 +24°C° 0 mm 3 m/s 763 mmHg 56%
    18:00 +23°C° 0 mm 2 m/s 763 mmHg 59%
    19:00 +20°C° 0.1 mm 2 m/s 763 mmHg 67%
    20:00 +18°C° 0.1 mm 2 m/s 763 mmHg 75%
    21:00 +16°C° 0.1 mm 1 m/s 763 mmHg 83%
    22:00 +16°C° 0 mm 1 m/s 763 mmHg 84%
    23:00 +16°C° 0 mm 1 m/s 763 mmHg 84%

    31 Mai, Dimanche

    Heure Température Précipitation Vent Pression Humidité
    00:00 +15°C° 0 mm 1 m/s 764 mmHg 84%
    01:00 +15°C° 0 mm 1 m/s 763 mmHg 85%
    02:00 +14°C° 0 mm 1 m/s 763 mmHg 86%
    03:00 +14°C° 0 mm 1 m/s 763 mmHg 88%
    04:00 +14°C° 0 mm 1 m/s 763 mmHg 86%
    05:00 +15°C° 0 mm 1 m/s 763 mmHg 84%
    06:00 +16°C° 0 mm 1 m/s 763 mmHg 82%
    07:00 +18°C° 0 mm 1 m/s 763 mmHg 76%
    08:00 +20°C° 0 mm 1 m/s 763 mmHg 70%
    09:00 +21°C° 0 mm 1 m/s 763 mmHg 64%
    10:00 +22°C° 0 mm 1 m/s 763 mmHg 59%
    11:00 +23°C° 0 mm 1 m/s 763 mmHg 54%
    12:00 +23°C° 0 mm 2 m/s 763 mmHg 49%
    13:00 +23°C° 0 mm 2 m/s 763 mmHg 49%
    14:00 +23°C° 0 mm 2 m/s 762 mmHg 50%
    15:00 +23°C° 0 mm 2 m/s 762 mmHg 50%
    16:00 +23°C° 0 mm 2 m/s 762 mmHg 54%
    17:00 +22°C° 0 mm 1 m/s 762 mmHg 59%
    18:00 +21°C° 0 mm 1 m/s 762 mmHg 63%
    19:00 +20°C° 0 mm 1 m/s 762 mmHg 71%
    20:00 +18°C° 0 mm 1 m/s 762 mmHg 80%
    21:00 +15°C° 0 mm 1 m/s 761 mmHg 88%
    22:00 +15°C° 0.1 mm 1 m/s 761 mmHg 88%
    23:00 +15°C° 0.1 mm 1 m/s 761 mmHg 89%

    1 Juin, Lundi

    Heure Température Précipitation Vent Pression Humidité
    00:00 +15°C° 0.1 mm 1 m/s 761 mmHg 90%
    01:00 +14°C° 0 mm 1 m/s 761 mmHg 90%
    02:00 +14°C° 0 mm 1 m/s 760 mmHg 91%
    03:00 +13°C° 0 mm 1 m/s 760 mmHg 92%
    04:00 +14°C° 0 mm 1 m/s 760 mmHg 91%
    05:00 +14°C° 0 mm 1 m/s 760 mmHg 89%
    06:00 +15°C° 0 mm 1 m/s 760 mmHg 87%
    07:00 +18°C° 0 mm 1 m/s 760 mmHg 79%
    08:00 +18°C° 0 mm 2 m/s 760 mmHg 71%
    09:00 +20°C° 0 mm 2 m/s 760 mmHg 63%
    10:00 +20°C° 0.1 mm 2 m/s 760 mmHg 61%
    11:00 +21°C° 0.1 mm 2 m/s 760 mmHg 59%
    12:00 +21°C° 0.1 mm 2 m/s 760 mmHg 57%
    13:00 +21°C° 0.2 mm 2 m/s 759 mmHg 58%
    14:00 +21°C° 0.2 mm 2 m/s 759 mmHg 58%
    15:00 +21°C° 0.2 mm 2 m/s 759 mmHg 59%
    16:00 +22°C° 0.5 mm 1 m/s 759 mmHg 65%
    17:00 +21°C° 0.5 mm 1 m/s 759 mmHg 71%
    18:00 +20°C° 0.5 mm 1 m/s 760 mmHg 77%
    19:00 +19°C° 0.2 mm 1 m/s 760 mmHg 81%
    20:00 +18°C° 0.2 mm 1 m/s 760 mmHg 84%
    21:00 +16°C° 0.2 mm 1 m/s 761 mmHg 88%
    22:00 +15°C° 0 mm 1 m/s 761 mmHg 89%
    23:00 +15°C° 0 mm 1 m/s 761 mmHg 90%
    Voir plus